This demonstration page uses our WeatherBlox Daily Observations layout. Learn more.

Left ArrowRight Arrow

44.8408, -93.29828

Hourly Observations for August 15, 2021

Temp ( °F °C ) Dew Point ( °F °C ) Humidity (%) Winds ( mph kmh ) Pressure ( in mb ) Visibility ( mi km ) Precip ( " mm )
12:53 am 00:53 Clear 72 22.2 53 11.7 52 52 SSW 7 11 30.14 1021 10 16 0.00 0.00
1:53 am 01:53 Clear 71 21.7 54 12.2 55 55 SSW 7 11 30.15 1021 10 16 0.00 0.00
2:53 am 02:53 Clear 69 20.6 54 12.2 59 59 SSW 5 7 30.14 1021 10 16 0.00 0.00
3:53 am 03:53 Clear 68 20 54 12.2 61 61 SSW 7 11 30.14 1021 10 16 0.00 0.00
4:53 am 04:53 Clear 67 19.4 54 12.2 63 63 SSW 6 9 30.15 1021 10 16 0.00 0.00
5:53 am 05:53 Clear 65 18.3 53 11.7 66 66 SSW 7 11 30.16 1021 10 16 0.00 0.00
6:53 am 06:53 Sunny 66 18.9 52 11.1 61 61 SSW 7 11 30.16 1021 10 16 0.00 0.00
7:53 am 07:53 Sunny 68 20 52 11.1 57 57 SSW 9 15 30.17 1022 10 16 0.00 0.00
8:53 am 08:53 Sunny 71 21.7 51 10.6 49 49 SSW 12 19 30.18 1022 10 16 0.00 0.00
9:53 am 09:53 Sunny 74 23.3 52 11.1 46 46 SSW 9 15 30.17 1022 10 16 0.00 0.00
10:53 am 10:53 Sunny 79 26.1 52 11.1 39 39 SW 9 15 30.16 1021 10 16 0.00 0.00
11:53 am 11:53 Sunny 81 27.2 51 10.6 35 35 S 10 17 30.14 1021 10 16 0.00 0.00
12:53 pm 12:53 Sunny 83 28.3 52 11.1 34 34 S 13 20 30.12 1020 10 16 0.00 0.00
1:53 pm 13:53 Sunny 83 28.3 52 11.1 34 34 S 12 19 30.10 1019 10 16 0.00 0.00
2:53 pm 14:53 Sunny 84 28.9 52 11.1 33 33 SSW 12 19 30.09 1019 10 16 0.00 0.00
3:53 pm 15:53 Sunny 85 29.4 53 11.7 33 33 S 12 19 30.07 1018 10 16 0.00 0.00
4:53 pm 16:53 Sunny 84 28.9 50 10 31 31 S 16 26 30.06 1018 10 16 0.00 0.00
5:53 pm 17:53 Sunny 83 28.3 54 12.2 37 37 S 10 17 30.04 1017 10 16 0.00 0.00
6:53 pm 18:53 Sunny 82 27.8 53 11.7 37 37 S 14 22 30.04 1017 10 16 0.00 0.00
7:53 pm 19:53 Sunny 79 26.1 52 11.1 39 39 S 10 17 30.04 1017 10 16 0.00 0.00
8:53 pm 20:53 Clear 75 23.9 55 12.8 50 50 SSE 8 13 30.05 1018 10 16 0.00 0.00
9:53 pm 21:53 Clear 74 23.3 55 12.8 52 52 S 8 13 30.05 1018 10 16 0.00 0.00
10:53 pm 22:53 Clear 71 21.7 56 13.3 59 59 SSE 7 11 30.05 1018 10 16 0.00 0.00
11:53 pm 23:53 Clear 71 21.7 55 12.8 57 57 S 10 17 30.05 1018 10 16 0.00 0.00

Powered by AerisWeather